Tracking 28766 objects as of 14-Apr-2024
HD Live streaming from Space Station
objects crossing your sky now

STARLINK-2161

Track STARLINK-2161 now!
10-day predictions
STARLINK-2161 is classified as:


NORAD ID: 47747
Int'l Code: 2021-017AB
Perigee: 553.4 km
Apogee: 555.3 km
Inclination: 53.1 °
Period: 95.6 minutes
Semi major axis: 6925 km
RCS: Unknown
Launch date: March 4, 2021
Source: United States (US)
Launch site: AIR FORCE EASTERN TEST RANGE (AFETR)
Your satellite tracking list
Your tracking list is empty




NASA's NSSDC Master Catalog

Two Line Element Set (TLE):
1 47747U 21017AB  24104.35297122  .00001099  00000-0  92678-4 0  9997
2 47747  53.0541  83.1036 0001389  91.7383 268.3765 15.06393349173092
Source of the keplerian elements: AFSPC